Date,TemperatureHighF,TemperatureAvgF,TemperatureLowF,DewpointHighF,DewpointAvgF,DewpointLowF,HumidityHigh,HumidityAvg,HumidityLow,PressureMaxIn,PressureMinIn,WindSpeedMaxMPH,WindSpeedAvgMPH,GustSpeedMaxMPH,PrecipitationSumIn
2013-10-1,79,64,50,64,57,49,98,80,49,30.06,29.95,2,0,5,0.00
2013-10-2,81,68,56,64,59,54,98,77,45,30.07,29.97,4,0,7,0.00
2013-10-3,83,70,58,67,61,56,97,77,46,30.06,29.98,0,0,5,0.00
2013-10-4,84,72,61,67,64,59,97,78,50,30.06,29.96,1,0,6,0.00
2013-10-5,87,72,61,68,64,59,97,77,47,30.04,29.95,1,0,3,0.00
2013-10-6,82,73,62,71,67,60,97,82,60,30.00,29.86,1,0,2,0.00
2013-10-7,74,71,64,72,68,58,97,93,82,29.92,29.77,2,0,5,1.58
2013-10-8,64,61,59,58,49,45,82,66,59,30.14,29.92,3,1,7,0.00
2013-10-9,62,58,55,56,52,49,95,82,70,30.13,30.03,5,1,13,0.11
2013-10-10,62,57,54,59,55,52,96,93,88,30.03,29.87,4,2,11,0.10
2013-10-11,66,62,59,63,60,58,96,93,87,29.91,29.84,3,0,6,0.07
2013-10-12,68,64,61,65,62,60,95,92,86,30.01,29.89,2,0,7,0.00
2013-10-13,67,64,62,64,62,60,96,93,88,30.14,30.01,2,0,7,0.11
2013-10-14,65,62,57,62,60,56,97,92,82,30.18,30.12,2,0,6,0.06
2013-10-15,71,58,52,62,47,-100,100,86,64,30.14,29.99,3,0,8,0.01
2013-10-16,69,64,60,64,61,59,98,90,77,30.00,29.89,0,0,0,0.00
2013-10-17,73,66,60,66,63,59,98,89,73,29.90,29.77,0,0,1,0.00
2013-10-18,68,63,55,65,54,45,95,73,50,29.98,29.81,4,0,8,0.00
2013-10-19,70,62,58,64,59,56,95,91,80,29.91,29.75,0,0,0,0.01
2013-10-20,62,54,44,58,46,40,95,78,43,30.07,29.83,3,0,8,0.00
2013-10-21,66,50,37,52,44,35,98,81,39,30.11,29.94,1,0,3,0.00
2013-10-22,65,56,50,59,54,48,98,91,75,29.94,29.74,0,0,0,0.00
2013-10-23,66,57,48,58,47,33,98,72,35,29.93,29.62,7,2,14,0.00
2013-10-24,57,46,35,42,36,31,95,68,39,30.12,29.93,5,0,11,0.00
2013-10-25,54,45,34,40,33,25,89,67,34,30.31,30.12,6,1,17,0.00
2013-10-26,58,42,28,40,32,26,98,71,36,30.31,30.01,3,0,8,0.00
2013-10-27,66,53,41,48,41,37,94,67,37,30.07,29.98,3,0,9,0.00
2013-10-28,68,54,42,55,48,39,98,81,50,30.19,30.06,0,0,0,0.00
2013-10-29,71,58,50,58,53,48,98,83,56,30.27,30.18,3,0,5,0.00
2013-10-30,72,59,50,60,54,48,98,85,61,30.24,30.09,0,0,1,0.00
2013-10-31,74,64,55,64,57,53,98,79,57,30.13,29.85,1,0,3,0.00